Location: Cieszkowy
(50.3290°N, 20.5336°E)
Time: 23:12:53
(UTC+00:00)

Meteor 1-27 - Pass Details

Date: 15 June 2024
Orbit: 837 x 891 km, 81.3° (Epoch: 18 July)

Event Time Altitude Azimuth Distance (km) Brightness Sun altitude
Rises 01:05:35 0° 344° (NNW) 3,515 8.1 -9.5°
Reaches altitude 10° 01:08:05 10° 341° (NNW) 2,569 7.3 -9.3°
Maximum altitude 01:13:47 57° 265° (W) 1,038 4.5 -8.7°
Drops below altitude 10° 01:19:25 10° 188° (S) 2,528 6.2 -8.2°
Enters shadow 01:20:38 - 185° (S) 2,986 6.5 -8.1°
